sat.trackr.live / text

‹ back to catalog

STARLINK-3388

NORAD 51131 · 2022-005AD

PAYLOAD ACTIVE UNKNOWN

§ Identity

Operator
Country
US
Launch date
2022-01-19
Launch site
AFETR
Launch vehicle
Mass (kg)
RCS (m²)

Purposes: comms

External: N2YO · Heavens-Above · Gunter

§ Orbital elements

Epoch: 2026-05-25T04:18:41.828256Z

Period
95.44 min
Inclination
53.2146°
Eccentricity
0.0001156
Mean motion
15.08834147 rev/d
Perigee alt
539.0 km
Apogee alt
540.6 km
Semi-major
6,917.9 km
B*
2.9384e-5
RAAN
315.7439°
Arg perigee
92.2626°
Mean anomaly
267.8498°
Rev number
24,027

§ Raw data

STARLINK-33881 51131U 22005AD  26145.17965079  .00000180  00000+0  29384-4 0  99902 51131  53.2146 315.7439 0001156  92.2626 267.8498 15.08834147240276

JSON: /api/v1/satellites/51131 · /tle

For live sub-satellite position, see the globe view (requires WebGL).

§ Visibility from observer

Set your observer location to see the next 7 days of passes ≥ 10°. The values pass through the URL so the page stays shareable.

No JS? Fill the form by hand. The geolocation button needs JavaScript.